Location: Newark
(35.8967°N, 14.4625°E)
Time: 03:32:18
(UTC+00:00)

N. Korean satellite - Pass Details

Date: 19 November 2019
Orbit: 455 x 506 km, 97.2° (Epoch: 10 December)

Event Time Altitude Azimuth Distance (km) Brightness Sun altitude
Rises 04:35:46 0° 16° (NNE) 2,607 10.3 -13.5°
Reaches altitude 10° 04:37:55 10° 22° (NNE) 1,713 9.4 -13.1°
Maximum altitude 04:41:32 53° 99° (E) 619 7.5 -12.4°
Drops below altitude 10° 04:45:04 10° 177° (S) 1,677 9.5 -11.7°
Sets 04:47:08 0° 182° (S) 2,545 10.4 -11.3°
